{"data":{"norad_id":57181,"intl_designator":"2023-091R","name":"2023-091R","alt_names":[],"object_type":"PAYLOAD","status":"ACTIVE","operator":null,"country":"CIS","launch_date":"2023-06-27","launch_site_code":"VOSTO","launch_vehicle":null,"mission":null,"orbit_class":"UNKNOWN","rcs_meters":null,"size_class":null,"mass_kg":null,"dimensions":null,"purposes":[],"wikipedia_slug":null,"has_3d_model":false,"image_url":null,"decayed_at":null,"tle_current":{"epoch":"2026-05-25T04:00:59.236128Z","epoch_age_seconds":67481,"freshness":"FRESH","line1":"1 57181U 23091R   26145.16735227  .00003231  00000+0  17956-3 0  9997","line2":"2 57181  97.5080 199.4234 0014320 211.6625 148.3747 15.14327558160202","mean_motion":15.14327558,"eccentricity":0.001432,"inclination_deg":97.508,"raan_deg":199.4234,"arg_perigee_deg":211.6625,"mean_anomaly_deg":148.3747,"bstar":0.00017956,"rev_number":16020,"period_min":95.091711987454,"perigee_km":513.1383338547,"apogee_km":532.90324977045,"semimajor_km":6901.1577918126,"source":"CELESTRAK","updated_at":"2026-05-25T13:37:59.909297Z"}}}